QFA37 YSSY-WSSS

Flight info

Callsign QFA37
Flight time N/A
Altitude 36000
Route KADOM1/34L KADOM A576 PKS G222 AYE/N0489F380 G222 SAPDA A585 IPKON/N0487F400 A585 PLB G579 SJ
Aircraft A35K/H-SDE2E3GHIJ3J4J5LM1ORWXY/LB1D1

Departure

Time 2026-05-01 08:51
Airport Sydney Kingsford Smith International Airport (YSSY)

Arrival

Time N/A
Airport Singapore Changi Airport (WSSS)
Time Latitude Longitude Altitude Speed Heading
2026-05-01 08:12 -33.93559 151.16828 36 ft 0 kts 237°
2026-05-01 08:36 -33.93557 151.16832 35 ft 2 kts 236°
2026-05-01 08:36 -33.93547 151.16848 34 ft 2 kts 233°
2026-05-01 08:36 -33.93537 151.16863 33 ft 2 kts 230°
2026-05-01 08:36 -33.93526 151.16878 33 ft 2 kts 225°
2026-05-01 08:37 -33.93513 151.16892 34 ft 2 kts 217°
2026-05-01 08:37 -33.93500 151.16903 34 ft 2 kts 207°
2026-05-01 08:37 -33.93485 151.16910 34 ft 2 kts 193°
2026-05-01 08:37 -33.93468 151.16912 35 ft 2 kts 176°
2026-05-01 08:38 -33.93452 151.16909 34 ft 2 kts 165°
2026-05-01 08:38 -33.93443 151.16906 36 ft 1 kts 163°
2026-05-01 08:38 -33.93442 151.16906 36 ft 0 kts 164°
2026-05-01 08:42 -33.93446 151.16907 36 ft 3 kts 165°
2026-05-01 08:43 -33.93476 151.16919 36 ft 6 kts 154°
2026-05-01 08:43 -33.93503 151.16966 36 ft 8 kts 104°
2026-05-01 08:43 -33.93505 151.17046 36 ft 11 kts 97°
2026-05-01 08:43 -33.93559 151.17113 35 ft 13 kts 160°
2026-05-01 08:44 -33.93657 151.17143 35 ft 16 kts 167°
2026-05-01 08:44 -33.93774 151.17174 35 ft 18 kts 167°
2026-05-01 08:44 -33.93905 151.17207 35 ft 20 kts 168°
2026-05-01 08:44 -33.94047 151.17244 35 ft 21 kts 167°
2026-05-01 08:45 -33.94199 151.17285 34 ft 23 kts 167°
2026-05-01 08:45 -33.94357 151.17325 36 ft 23 kts 168°
2026-05-01 08:45 -33.94518 151.17366 36 ft 25 kts 168°
2026-05-01 08:45 -33.94690 151.17411 36 ft 26 kts 167°
2026-05-01 08:46 -33.94869 151.17459 35 ft 27 kts 168°
2026-05-01 08:46 -33.95056 151.17508 35 ft 28 kts 167°
2026-05-01 08:46 -33.95249 151.17559 35 ft 29 kts 167°
2026-05-01 08:46 -33.95445 151.17609 35 ft 29 kts 168°
2026-05-01 08:47 -33.95642 151.17659 36 ft 30 kts 168°
2026-05-01 08:47 -33.95845 151.17711 36 ft 30 kts 168°
2026-05-01 08:47 -33.96050 151.17766 36 ft 30 kts 167°
2026-05-01 08:47 -33.96257 151.17820 36 ft 31 kts 168°
2026-05-01 08:48 -33.96426 151.17905 36 ft 15 kts 109°
2026-05-01 08:48 -33.96427 151.17917 36 ft 0 kts 96°
2026-05-01 08:49 -33.96427 151.17920 36 ft 1 kts 96°
2026-05-01 08:49 -33.96429 151.17957 36 ft 8 kts 91°
2026-05-01 08:50 -33.96402 151.18034 35 ft 12 kts 38°
2026-05-01 08:50 -33.96319 151.18036 35 ft 16 kts 349°
2026-05-01 08:50 -33.95991 151.17955 34 ft 80 kts 349°
2026-05-01 08:50 -33.95253 151.17759 35 ft 135 kts 347°
2026-05-01 08:51 -33.94178 151.17475 87 ft 178 kts 350°
2026-05-01 08:51 -33.92940 151.17186 657 ft 176 kts 351°
2026-05-01 08:51 -33.91757 151.16989 1384 ft 175 kts 356°
2026-05-01 08:51 -33.90573 151.16324 1616 ft 208 kts 318°
2026-05-01 08:52 -33.89890 151.14729 1764 ft 231 kts 288°
2026-05-01 08:52 -33.89429 151.12822 2056 ft 244 kts 290°
2026-05-01 08:52 -33.88776 151.10862 2364 ft 257 kts 297°
2026-05-01 08:52 -33.87946 151.08936 2914 ft 260 kts 302°
2026-05-01 08:53 -33.87140 151.07274 3446 ft 262 kts 303°
2026-05-01 08:53 -33.86172 151.05398 4032 ft 265 kts 304°
2026-05-01 08:53 -33.85167 151.03524 4635 ft 267 kts 305°
2026-05-01 08:53 -33.84333 151.01551 5228 ft 271 kts 290°
2026-05-01 08:54 -33.83852 150.99359 5826 ft 273 kts 284°
2026-05-01 08:54 -33.83456 150.97105 6409 ft 276 kts 283°
2026-05-01 08:54 -33.83066 150.94835 6970 ft 279 kts 283°
2026-05-01 08:54 -33.82662 150.92525 7516 ft 282 kts 283°
2026-05-01 08:55 -33.82250 150.90214 8072 ft 284 kts 284°
2026-05-01 08:55 -33.81826 150.87869 8620 ft 287 kts 284°
2026-05-01 08:55 -33.81396 150.85513 9177 ft 290 kts 284°
2026-05-01 08:55 -33.80962 150.83137 9733 ft 292 kts 284°
2026-05-01 08:56 -33.80525 150.80757 10273 ft 295 kts 284°
2026-05-01 08:56 -33.80078 150.78328 10628 ft 303 kts 284°
2026-05-01 08:56 -33.79613 150.75802 10847 ft 316 kts 284°
2026-05-01 08:56 -33.79125 150.73162 11064 ft 330 kts 284°
2026-05-01 08:57 -33.78617 150.70416 11263 ft 342 kts 284°
2026-05-01 08:57 -33.78093 150.67576 11467 ft 354 kts 284°
2026-05-01 08:57 -33.77550 150.64641 11671 ft 365 kts 284°
2026-05-01 08:57 -33.76990 150.61617 11870 ft 375 kts 284°
2026-05-01 08:58 -33.76413 150.58507 12087 ft 384 kts 284°
2026-05-01 08:58 -33.75827 150.55353 12416 ft 389 kts 284°
2026-05-01 08:58 -33.75243 150.52206 12808 ft 392 kts 284°
2026-05-01 08:58 -33.74647 150.49008 13205 ft 394 kts 284°
2026-05-01 08:59 -33.74046 150.45784 13613 ft 396 kts 284°
2026-05-01 08:59 -33.73440 150.42544 14020 ft 398 kts 284°
2026-05-01 08:59 -33.72831 150.39286 14403 ft 401 kts 284°
2026-05-01 08:59 -33.72220 150.36020 14763 ft 402 kts 284°
2026-05-01 09:00 -33.71609 150.32774 15123 ft 405 kts 284°
2026-05-01 09:00 -33.70925 150.29433 15487 ft 406 kts 287°
2026-05-01 09:00 -33.70126 150.26153 15862 ft 408 kts 288°
2026-05-01 09:00 -33.69271 150.22939 16247 ft 410 kts 289°
2026-05-01 09:01 -33.68368 150.19678 16605 ft 412 kts 289°
2026-05-01 09:01 -33.67449 150.16406 16966 ft 414 kts 289°
2026-05-01 09:01 -33.66526 150.13113 17331 ft 417 kts 289°
2026-05-01 09:01 -33.65606 150.09802 17690 ft 419 kts 289°
2026-05-01 09:02 -33.64688 150.06470 18048 ft 421 kts 289°
2026-05-01 09:02 -33.63771 150.03128 18411 ft 423 kts 288°
2026-05-01 09:02 -33.62859 149.99796 18757 ft 425 kts 288°
2026-05-01 09:02 -33.61937 149.96429 19078 ft 426 kts 288°
2026-05-01 09:03 -33.61008 149.93037 19403 ft 427 kts 288°
2026-05-01 09:03 -33.60080 149.89650 19735 ft 428 kts 289°
2026-05-01 09:03 -33.59147 149.86254 20059 ft 429 kts 289°
2026-05-01 09:03 -33.58209 149.82845 20386 ft 430 kts 289°
2026-05-01 09:04 -33.57268 149.79430 20721 ft 431 kts 289°
2026-05-01 09:04 -33.56324 149.76007 21031 ft 432 kts 289°
2026-05-01 09:04 -33.55376 149.72577 21313 ft 434 kts 289°
2026-05-01 09:04 -33.54424 149.69133 21612 ft 436 kts 289°
2026-05-01 09:05 -33.53477 149.65718 21901 ft 438 kts 289°
2026-05-01 09:05 -33.52512 149.62242 22192 ft 439 kts 289°
2026-05-01 09:05 -33.51544 149.58758 22487 ft 441 kts 289°
2026-05-01 09:05 -33.50573 149.55270 22797 ft 442 kts 289°
2026-05-01 09:06 -33.49596 149.51759 23080 ft 444 kts 289°
2026-05-01 09:06 -33.48617 149.48247 23363 ft 445 kts 289°
2026-05-01 09:06 -33.47632 149.44719 23662 ft 447 kts 289°
2026-05-01 09:06 -33.46656 149.41226 23950 ft 448 kts 289°
2026-05-01 09:07 -33.45663 149.37677 24183 ft 450 kts 289°
2026-05-01 09:07 -33.44664 149.34109 24422 ft 451 kts 289°
2026-05-01 09:07 -33.43665 149.30548 24666 ft 452 kts 289°
2026-05-01 09:07 -33.42662 149.26976 24910 ft 453 kts 288°
2026-05-01 09:08 -33.41658 149.23405 25144 ft 454 kts 288°
2026-05-01 09:08 -33.40644 149.19801 25384 ft 456 kts 288°
2026-05-01 09:08 -33.39628 149.16197 25614 ft 457 kts 288°
2026-05-01 09:08 -33.38611 149.12594 25858 ft 458 kts 288°
2026-05-01 09:09 -33.37605 149.09031 26077 ft 459 kts 288°
2026-05-01 09:09 -33.36581 149.05411 26292 ft 460 kts 288°
2026-05-01 09:09 -33.35550 149.01775 26543 ft 461 kts 288°
2026-05-01 09:09 -33.34521 148.98145 26790 ft 462 kts 288°
2026-05-01 09:10 -33.33485 148.94495 27042 ft 463 kts 288°
2026-05-01 09:10 -33.32447 148.90845 27293 ft 465 kts 288°
2026-05-01 09:10 -33.31402 148.87175 27551 ft 466 kts 288°
2026-05-01 09:10 -33.30357 148.83506 27795 ft 467 kts 288°
2026-05-01 09:11 -33.29308 148.79831 28047 ft 468 kts 288°
2026-05-01 09:11 -33.28251 148.76134 28282 ft 469 kts 288°
2026-05-01 09:11 -33.27195 148.72443 28511 ft 471 kts 288°
2026-05-01 09:11 -33.26132 148.68734 28744 ft 472 kts 288°
2026-05-01 09:12 -33.25066 148.65018 28968 ft 474 kts 288°
2026-05-01 09:12 -33.23996 148.61293 29163 ft 475 kts 287°
2026-05-01 09:12 -33.22921 148.57558 29379 ft 476 kts 287°
2026-05-01 09:12 -33.21853 148.53848 29573 ft 478 kts 287°
2026-05-01 09:13 -33.20771 148.50097 29770 ft 479 kts 287°
2026-05-01 09:13 -33.19677 148.46307 29976 ft 481 kts 287°
2026-05-01 09:13 -33.18952 148.43798 30120 ft 481 kts 287°
2026-05-01 09:13 -33.17859 148.40023 30407 ft 481 kts 287°
2026-05-01 09:14 -33.16766 148.36255 30705 ft 479 kts 287°
2026-05-01 09:14 -33.15226 148.30948 31179 ft 476 kts 287°
2026-05-01 09:14 -33.10646 148.16306 32635 ft 467 kts 291°
2026-05-01 09:14 -33.05362 148.02329 34219 ft 455 kts 291°
2026-05-01 09:15 -33.00302 147.88540 35121 ft 455 kts 291°
2026-05-01 09:15 -32.95236 147.74714 35956 ft 456 kts 291°
2026-05-01 09:15 -32.90153 147.60913 36275 ft 463 kts 291°
2026-05-01 09:15 -32.84966 147.46897 36273 ft 462 kts 292°
2026-05-01 09:16 -32.73771 147.19351 36273 ft 463 kts 295°
2026-05-01 09:17 -32.56028 146.78760 36265 ft 461 kts 295°
2026-05-01 09:17 -32.38245 146.38496 36256 ft 461 kts 296°
2026-05-01 09:18 -32.20130 145.97935 36243 ft 473 kts 296°
2026-05-01 09:19 -32.01598 145.56909 36228 ft 471 kts 296°
2026-05-01 09:20 -31.83028 145.16245 36209 ft 468 kts 296°
2026-05-01 09:21 -31.58195 144.62559 36203 ft 466 kts 296°
2026-05-01 09:21 -31.39655 144.22974 36186 ft 461 kts 296°
2026-05-01 09:22 -31.14942 143.70848 36165 ft 455 kts 295°
2026-05-01 09:23 -30.96476 143.32356 36156 ft 452 kts 295°
2026-05-01 09:24 -30.77960 142.94145 36144 ft 449 kts 296°
2026-05-01 09:25 -30.53363 142.43966 36132 ft 446 kts 296°
2026-05-01 09:26 -30.34886 142.06691 36122 ft 443 kts 296°
2026-05-01 09:26 -30.16403 141.69752 36111 ft 440 kts 297°
2026-05-01 09:27 -29.97919 141.33156 36104 ft 439 kts 297°
2026-05-01 09:28 -29.85565 141.08881 36099 ft 438 kts 297°
2026-05-01 09:28 -29.73276 140.84881 36091 ft 437 kts 297°
2026-05-01 09:29 -29.54690 140.48852 36081 ft 435 kts 297°
2026-05-01 09:30 -29.36098 140.13130 36074 ft 434 kts 297°
2026-05-01 09:30 -29.17406 139.77526 36067 ft 433 kts 298°
2026-05-01 09:31 -29.05008 139.54082 36066 ft 433 kts 298°
2026-05-01 09:32 -28.86215 139.18795 36054 ft 432 kts 298°
2026-05-01 09:32 -28.67391 138.83751 36047 ft 432 kts 298°
2026-05-01 09:33 -28.54802 138.60477 36044 ft 431 kts 298°
2026-05-01 09:34 -28.48487 138.48850 36038 ft 431 kts 298°